Temperature
16 16 16 16 15 15 15 15 15 16 16 15 15 15 15 15 15 15 15 15 15 15 15 15 15 15 15 15 15 15 15 15 15 15 15 15 15 15 15 15 15 15 15
16 16 16 16 15 15 15 15 15 15 15 15 15 15 15 15 15 15 15 15 15 15 15 15 15 15 15 15 15 15 15 15 15 15 15 15 15 15 15 15 15 15 15
16 16 16 16 15 15 15 15 15 15 15 15 15 15 15 15 15 15 14 14 14 14 14 14 14 14 15 15 14 14 15 14 14 14 15 15 15 14 15 15 15 15 15
16 16 16 16 15 15 15 15 15 15 15 15 15 15 15 14 14 14 14 14 14 14 14 14 14 14 14 14 14 14 14 14 14 14 14 14 14 14 14 14 14 14 14
16 16 16 15 15 15 15 15 15 15 15 14 14 14 14 14 14 14 14 14 14 14 14 14 14 14 14 14 14 14 14 14 14 14 14 14 14 14 14 14 14 14 14
16 16 15 15 15 15 15 15 15 15 15 14 14 14 14 14 14 14 14 14 14 14 14 14 14 14 14 14 14 14 14 14 14 14 14 14 14 14 14 14 14 14 14
16 15 15 15 15 15 15 15 15 14 14 14 14 14 14 14 14 14 14 14 14 14 14 14 13 13 14 14 14 14 14 14 13 14 13 13 13 13 13 13 13 13 13
15 15 15 15 15 15 15 14 14 14 14 14 14 14 14 14 14 14 14 14 14 14 13 13 13 13 13 14 14 14 14 13 13 13 13 13 13 13 13 13 13 13 13
15 15 15 15 15 15 15 14 14 14 14 14 14 14 14 14 13 13 13 13 13 13 13 13 13 13 13 13 13 13 13 13 13 13 13 13 13 13 13 13 13 13 13
15 15 15 15 15 15 15 14 14 14 14 14 14 14 14 14 14 13 13 13 13 13 13 13 13 13 13 13 13 13 13 13 13 13 13 12 12 12 12 12 12 13 13
15 15 15 15 15 15 15 14 14 14 14 14 14 14 14 14 14 14 13 13 13 13 13 13 13 13 12 13 13 13 13 13 13 12 12 12 12 12 12 12 12 12 12
15 15 15 15 15 15 14 14 14 14 14 14 14 14 14 14 14 14 14 13 13 13 13 13 13 12 12 12 12 12 12 12 12 12 12 12 12 12 12 12 12 12 12
15 15 15 15 15 15 14 14 14 14 14 14 14 14 14 14 14 14 14 13 13 13 13 12 12 12 12 12 12 12 12 12 12 12 12 12 12 12 12 12 12 12 12
15 15 15 15 15 15 14 14 14 14 14 14 14 14 14 14 14 14 14 13 13 13 12 12 12 12 12 12 12 12 12 12 12 12 12 12 12 12 12 12 12 12 12
15 15 15 15 15 15 14 14 14 14 14 14 14 14 14 14 14 13 13 13 13 12 12 12 12 12 12 12 12 12 12 12 12 12 12 12 12 12 12 12 12 12 11
15 15 15 15 14 14 14 14 14 14 14 14 14 14 14 14 13 13 13 13 13 13 12 12 12 12 11 11 11 11 11 11 11 11 11 11 11 11 11 11 11 11 11
15 15 15 15 14 14 14 14 14 14 14 14 14 14 14 13 13 13 13 13 13 13 12 12 11 11 11 11 11 11 11 11 11 11 11 11 11 11 11 11 11 11 11
15 15 15 15 14 14 14 14 14 14 14 14 14 14 13 13 13 13 13 13 13 12 12 12 11 11 11 11 11 11 11 11 11 11 11 11 11 11 11 11 11 11 11
15 15 15 14 14 14 14 14 14 14 14 14 13 13 13 13 13 13 13 13 12 12 12 12 11 11 11 11 11 10 10 10 10 10 10 10 10 10 10 10 10 10 10
14 14 14 14 14 14 14 14 14 14 13 13 13 13 13 13 13 13 13 12 12 12 12 12 11 11 11 11 10 10 10 10 10 10 10 10 10 10 10 10 10 10 10
14 14 14 14 14 14 14 14 14 14 13 13 13 13 13 13 13 13 13 12 12 12 12 11 11 11 11 10 10 10 10 10 10 10 10 10 10 10 10 10 10 10 10
14 14 14 14 14 13 13 13 13 13 13 13 13 13 13 13 13 13 12 12 12 12 11 11 11 11 11 11 10 10 10 10 9 9 9 9 9 9 10 10 9 9 9
13 14 13 13 13 13 13 13 13 13 13 13 13 13 13 12 12 12 12 12 12 12 11 11 11 11 11 11 11 10 10 10 10 9 9 9 9 9 9 9 9 9 9
13 13 13 13 13 13 13 13 13 13 13 13 12 12 12 12 12 12 12 12 12 11 11 11 11 11 11 11 10 10 10 10 9 9 9 9 9 9 9 9 8 8 9
13 13 13 13 13 13 13 13 12 12 12 12 12 12 12 12 12 12 12 11 11 11 11 11 11 11 11 10 10 10 10 9 9 9 9 8 8 8 8 8 8 8 8
12 12 12 12 12 12 12 12 12 12 12 12 12 12 11 11 11 11 11 11 11 11 10 10 10 10 10 10 10 10 10 9 9 9 9 8 8 8 8 8 7 7 7
Wind_Speed
3 3 3 4 4 5 4 3 4 6 6 8 9 9 8 9 9 9 8 10 9 9 9 9 9 8 8 7 7 7 7 7 7 7 7 7 6 5 5 5 5 5 5
3 3 3 4 4 5 5 5 5 5 5 6 7 7 7 8 8 8 8 9 11 11 10 10 9 9 8 8 8 7 8 8 7 7 7 6 6 5 5 5 5 5 5
5 5 3 3 4 5 6 5 6 5 5 5 6 6 6 7 7 7 8 8 9 11 11 11 10 10 9 8 8 8 8 8 8 7 7 7 6 6 5 5 5 6 6
8 5 3 3 5 5 4 4 4 4 4 5 5 4 5 5 6 7 8 8 8 8 9 10 11 10 10 9 8 8 9 9 9 9 9 8 8 7 7 7 7 7 8
8 5 3 3 5 4 3 4 4 3 4 4 3 3 3 4 4 6 6 7 7 8 8 10 10 10 10 9 8 9 9 9 9 9 9 9 9 9 10 10 10 9 10
6 5 3 4 5 4 3 3 4 3 3 3 4 4 3 3 3 3 4 6 6 7 6 7 8 9 10 11 10 8 8 9 9 9 10 9 9 10 11 11 11 10 10
5 4 3 4 3 3 3 4 3 3 2 2 3 2 2 2 3 2 3 3 5 6 6 6 6 6 7 10 11 10 9 9 10 10 10 10 11 11 11 11 11 11 11
3 4 4 3 3 3 3 3 3 1 0 1 1 1 1 2 3 2 2 2 3 4 5 6 7 8 8 8 10 12 11 11 11 11 11 11 11 11 12 11 11 11 11
3 4 3 3 3 3 2 2 2 2 0 1 1 1 1 1 0 1 1 2 2 2 3 5 7 9 9 10 10 12 13 13 11 12 12 12 12 12 11 11 11 11 11
2 3 3 3 2 2 2 2 2 1 1 1 1 1 1 2 1 0 1 1 2 3 3 4 6 8 9 10 11 12 13 12 12 12 12 12 12 12 12 11 11 11 11
2 2 3 2 1 2 2 2 2 1 0 0 0 0 1 1 1 2 1 1 1 1 2 4 5 6 8 10 10 11 12 12 12 12 12 12 12 12 12 12 12 11 11
1 1 2 2 1 2 2 2 2 1 0 1 0 0 1 1 0 1 1 1 1 0 2 3 4 5 7 9 9 10 10 10 11 11 11 11 12 12 12 12 12 12 11
1 1 1 1 1 1 1 2 1 1 1 1 1 0 1 1 1 1 2 1 1 1 1 2 3 5 6 8 8 9 8 8 8 9 9 10 10 11 11 11 11 11 11
1 2 2 2 2 1 1 1 0 0 0 0 0 1 0 1 1 2 1 2 1 0 1 1 2 5 6 7 7 7 6 7 7 7 7 8 8 9 9 10 10 11 11
1 2 2 2 2 2 1 1 1 1 0 0 0 1 1 1 1 1 1 1 2 1 1 2 1 2 5 6 6 6 5 5 5 6 6 6 6 7 7 8 9 10 10
1 2 2 2 2 3 2 1 1 0 0 0 0 1 0 0 1 1 1 1 1 2 1 1 2 3 3 5 5 5 5 5 4 4 4 4 4 5 5 6 7 8 9
3 2 2 1 2 2 2 2 2 2 1 1 1 1 1 1 1 1 1 0 0 2 2 0 2 3 3 3 4 4 5 5 3 3 2 2 3 4 4 5 6 7 7
1 1 1 1 1 1 1 2 3 2 2 1 1 2 2 2 2 1 1 1 1 1 3 2 1 2 2 3 3 2 3 3 3 2 2 2 3 3 4 4 5 5 6
1 1 2 1 1 1 1 2 3 2 2 1 1 1 2 2 2 2 2 2 2 2 2 2 2 1 1 2 2 1 1 2 2 3 4 2 2 2 3 3 4 4 5
1 2 1 2 2 1 1 1 1 2 2 1 1 1 1 1 2 3 3 3 3 3 2 2 2 2 2 2 2 1 1 1 1 1 3 3 2 1 1 3 3 4 4
0 0 0 0 0 0 0 1 0 1 1 1 0 1 1 2 2 2 2 2 2 2 2 2 2 2 2 2 2 2 2 1 1 1 1 2 3 2 1 0 1 2 3
0 0 0 1 1 1 2 1 1 0 1 1 1 1 1 2 2 2 2 2 2 2 3 2 2 3 3 3 3 3 2 1 2 1 1 1 2 2 2 2 1 1 1
1 1 1 1 1 1 1 1 1 1 1 1 2 1 1 1 2 2 2 1 0 1 2 3 3 3 3 3 4 3 2 2 3 2 2 1 0 1 2 2 3 2 1
2 2 2 2 2 2 3 3 2 2 2 2 1 1 2 2 1 1 2 1 1 2 3 3 3 2 2 3 4 4 4 2 1 1 2 1 1 1 1 2 3 3 2
2 2 2 3 3 3 4 4 3 1 2 3 2 1 2 2 2 2 1 1 1 1 1 1 2 2 2 2 2 2 2 2 1 2 1 1 1 1 1 2 2 4 3
3 2 3 3 4 4 5 5 5 2 2 2 1 0 1 2 2 2 2 1 1 1 1 0 0 1 1 1 2 3 3 3 2 2 2 1 1 0 2 1 2 2 2
Wind_Direction
91 86 90 90 86 85 71 52 58 56 53 55 59 60 60 66 76 82 79 72 73 73 71 71 66 63 60 61 60 58 56 58 54 50 47 45 41 39 36 37 37 38 37
87 81 83 81 78 77 68 59 62 62 61 63 56 53 54 59 70 78 84 76 74 72 68 65 62 59 57 57 59 58 60 55 53 50 48 45 40 38 37 37 35 40 35
78 84 73 84 88 86 78 69 65 63 65 68 59 51 50 52 58 65 71 76 77 71 67 64 60 57 58 58 58 58 58 55 50 50 49 45 40 42 37 33 40 42 37
73 77 79 82 90 85 84 84 75 68 65 66 60 50 52 51 52 58 66 68 69 72 68 63 59 55 53 56 56 56 56 53 52 52 54 50 45 42 41 44 48 48 43
68 76 72 81 83 81 74 85 83 82 80 76 78 63 55 52 47 51 52 62 67 74 77 68 64 58 51 50 54 57 56 52 50 51 54 53 50 49 52 51 50 48 45
75 76 72 72 77 77 71 83 85 81 90 95 82 71 67 69 56 45 43 54 61 72 74 73 74 63 57 53 49 53 52 52 53 55 57 55 52 55 56 53 50 48 46
87 94 82 73 76 79 84 92 94 89 98 111 94 71 57 67 75 57 46 51 57 57 67 71 72 74 68 57 46 52 55 55 57 58 58 57 56 55 54 53 49 47 46
65 93 94 95 95 94 83 87 106 91 100 91 96 97 78 37 24 51 67 63 53 56 55 61 68 71 72 71 55 55 56 56 59 59 58 60 58 55 52 51 49 47 45
64 71 87 90 97 106 116 115 106 95 54 353 53 79 97 101 73 16 68 87 73 56 53 58 65 73 76 71 63 59 58 54 57 59 58 58 57 55 50 48 48 47 45
102 103 116 109 114 108 112 112 100 93 98 347 342 27 86 124 132 134 346 66 83 66 62 62 59 67 78 81 73 66 63 58 56 56 55 55 54 52 49 46 44 44 45
88 95 107 118 131 124 130 119 105 102 122 103 1 29 48 41 64 120 131 61 46 46 75 79 73 66 78 85 82 72 68 62 57 54 55 54 51 48 45 43 41 42 44
105 111 112 121 135 126 128 133 143 165 154 110 349 18 110 88 48 93 138 143 127 85 76 83 86 84 85 84 84 79 74 68 62 57 54 53 50 46 42 41 41 42 41
127 170 139 135 129 137 141 130 143 161 172 168 194 286 358 49 92 104 125 144 139 142 86 88 102 101 96 93 91 86 83 76 69 62 57 54 50 46 41 39 38 38 37
175 180 144 134 134 144 145 134 133 181 129 154 124 133 57 32 88 112 123 122 91 104 126 127 90 102 104 105 102 92 91 87 79 68 60 53 48 46 42 40 37 36 35
174 158 146 160 160 159 167 151 166 215 172 89 122 167 145 154 125 118 127 138 138 164 226 155 116 114 122 117 117 111 105 100 89 74 61 51 45 45 41 38 36 34 32
193 161 154 176 173 175 175 159 152 258 99 98 94 56 44 100 120 124 175 275 110 146 179 173 148 152 132 126 127 121 110 111 97 83 67 52 45 46 43 39 35 32 30
190 178 178 182 164 162 169 161 173 183 208 222 199 181 185 157 145 148 127 59 45 116 132 133 127 141 131 127 129 136 119 127 115 108 88 62 48 46 41 36 32 29 26
192 169 163 153 144 147 167 171 177 185 200 217 231 193 185 161 150 138 127 134 125 131 138 148 158 147 147 148 145 154 135 142 134 141 139 91 67 54 41 33 29 25 25
180 202 178 186 178 173 191 185 169 186 190 209 231 217 199 164 170 166 160 153 158 144 134 150 165 158 153 141 129 139 137 157 172 172 165 147 110 71 51 35 27 23 22
193 222 194 185 180 186 190 183 182 183 194 205 213 211 219 176 172 170 167 169 158 156 156 157 172 173 169 168 143 170 246 260 226 155 145 159 157 135 69 38 27 20 17
216 164 77 55 78 173 142 58 114 147 184 236 223 105 67 73 90 109 126 143 150 164 166 175 190 190 190 177 190 192 188 223 251 192 156 168 157 139 122 12 352 9 18
301 11 133 83 41 18 70 60 16 327 245 220 189 166 139 112 97 106 114 118 133 169 186 185 199 204 210 196 182 178 181 188 273 241 154 219 148 145 137 153 194 211 2
213 224 204 165 160 175 170 197 274 281 278 263 230 201 211 173 127 155 162 160 218 234 203 190 204 216 205 195 175 181 195 200 224 217 125 251 203 182 161 176 190 190 214
205 215 211 190 185 208 209 221 229 247 260 270 254 194 168 164 161 152 142 155 241 257 235 214 206 227 188 160 166 182 193 184 208 234 138 221 241 234 178 166 191 193 211
214 211 209 202 202 212 207 210 194 208 246 256 255 233 166 167 163 143 135 185 226 272 335 131 146 132 127 130 127 130 151 143 232 261 209 183 239 260 240 211 203 204 215
218 207 213 216 212 209 205 205 193 202 221 243 259 240 118 136 151 159 176 195 223 239 179 132 151 236 187 184 165 163 177 182 201 250 235 177 214 203 314 279 183 195 236
Height
1533 1532 1532 1532 1533 1533 1533 1533 1534 1533 1533 1534 1534 1534 1534 1534 1534 1534 1534 1534 1534 1534 1534 1534 1533 1533 1533 1533 1533 1533 1533 1533 1533 1533 1532 1532 1532 1531 1531 1531 1530 1530 1529
1534 1534 1534 1534 1534 1534 1534 1535 1535 1535 1535 1535 1535 1535 1536 1536 1535 1535 1535 1535 1535 1535 1535 1534 1534 1534 1533 1533 1533 1533 1533 1533 1533 1532 1532 1532 1531 1531 1530 1530 1529 1529 1528
1535 1534 1534 1535 1535 1535 1535 1535 1536 1536 1536 1536 1536 1536 1537 1537 1537 1537 1536 1536 1536 1536 1535 1535 1535 1534 1534 1534 1534 1533 1533 1533 1533 1532 1532 1531 1531 1530 1530 1529 1529 1528 1528
1535 1535 1535 1536 1536 1536 1536 1536 1536 1537 1537 1537 1537 1538 1538 1538 1538 1538 1537 1537 1537 1536 1536 1536 1535 1535 1535 1534 1534 1534 1534 1533 1533 1532 1531 1531 1531 1530 1529 1529 1528 1528 1527
1536 1536 1536 1536 1537 1537 1537 1537 1537 1538 1538 1538 1538 1539 1539 1539 1539 1539 1539 1538 1538 1538 1537 1537 1536 1536 1535 1535 1534 1534 1534 1533 1533 1532 1532 1531 1531 1530 1529 1529 1528 1527 1526
1537 1537 1537 1537 1537 1538 1538 1538 1538 1538 1539 1539 1540 1540 1540 1540 1540 1540 1540 1540 1539 1539 1538 1538 1537 1536 1536 1535 1534 1534 1534 1533 1533 1533 1532 1532 1531 1530 1529 1528 1527 1527 1526
1538 1538 1538 1538 1538 1538 1539 1539 1539 1539 1540 1540 1540 1541 1541 1542 1542 1542 1541 1541 1541 1540 1540 1539 1538 1537 1536 1535 1534 1534 1534 1533 1533 1533 1532 1532 1531 1530 1529 1528 1527 1527 1526
1538 1539 1539 1539 1538 1539 1539 1540 1540 1540 1541 1541 1541 1542 1542 1544 1543 1543 1543 1542 1542 1542 1541 1540 1539 1538 1536 1535 1534 1534 1534 1534 1534 1533 1533 1532 1531 1530 1530 1529 1528 1527 1526
1539 1539 1539 1539 1540 1540 1540 1540 1540 1541 1541 1542 1542 1543 1543 1543 1544 1545 1544 1544 1543 1543 1542 1541 1540 1539 1538 1537 1536 1535 1535 1534 1534 1534 1533 1533 1532 1531 1530 1529 1528 1527 1526
1539 1539 1539 1540 1540 1540 1541 1541 1541 1541 1542 1542 1543 1543 1544 1543 1544 1544 1545 1545 1544 1544 1543 1542 1542 1540 1539 1538 1537 1537 1536 1535 1535 1534 1534 1533 1532 1531 1531 1530 1529 1528 1527
1539 1540 1540 1540 1540 1541 1541 1541 1541 1542 1542 1542 1543 1543 1543 1543 1544 1544 1544 1545 1545 1545 1544 1543 1542 1541 1540 1540 1538 1538 1537 1537 1536 1535 1535 1534 1533 1532 1532 1530 1529 1528 1527
1539 1540 1540 1540 1540 1541 1541 1541 1542 1542 1542 1542 1543 1543 1543 1543 1543 1543 1544 1544 1545 1545 1545 1544 1543 1542 1542 1541 1540 1539 1538 1538 1537 1536 1535 1535 1534 1533 1532 1531 1530 1529 1528
1539 1540 1540 1540 1540 1541 1541 1541 1542 1542 1542 1542 1542 1542 1542 1543 1543 1543 1543 1544 1544 1545 1545 1544 1544 1543 1542 1541 1540 1540 1539 1539 1538 1537 1536 1535 1534 1534 1533 1532 1531 1530 1529
1539 1539 1540 1540 1540 1540 1541 1541 1541 1541 1542 1542 1542 1542 1542 1542 1542 1542 1542 1543 1543 1544 1544 1544 1544 1543 1542 1542 1541 1540 1540 1539 1539 1538 1537 1536 1535 1534 1533 1532 1531 1530 1529
1538 1539 1539 1539 1539 1539 1540 1540 1540 1540 1541 1541 1541 1541 1541 1541 1542 1542 1542 1542 1543 1542 1543 1543 1543 1543 1542 1541 1541 1540 1540 1539 1538 1538 1537 1536 1535 1534 1533 1532 1531 1530 1529
1537 1537 1538 1538 1538 1538 1539 1539 1539 1539 1540 1540 1540 1540 1540 1541 1541 1541 1541 1541 1541 1541 1541 1542 1542 1542 1542 1541 1541 1540 1539 1539 1538 1538 1537 1536 1535 1534 1533 1532 1531 1530 1529
1536 1536 1537 1537 1537 1537 1538 1538 1538 1538 1538 1539 1539 1539 1539 1539 1539 1540 1540 1540 1540 1540 1540 1540 1541 1541 1541 1540 1539 1539 1539 1538 1538 1537 1536 1536 1535 1534 1533 1532 1531 1530 1529
1534 1535 1535 1536 1536 1536 1536 1537 1537 1537 1537 1537 1537 1538 1538 1538 1538 1538 1538 1538 1538 1538 1538 1538 1539 1539 1539 1539 1539 1538 1538 1537 1537 1536 1536 1535 1534 1533 1532 1531 1530 1529 1528
1532 1533 1533 1534 1534 1534 1535 1535 1536 1536 1536 1536 1536 1536 1536 1536 1536 1536 1537 1537 1537 1537 1537 1537 1537 1538 1538 1538 1537 1537 1537 1536 1536 1535 1535 1534 1533 1532 1532 1531 1530 1529 1528
1530 1531 1531 1532 1532 1533 1533 1533 1534 1534 1534 1535 1535 1535 1535 1535 1535 1535 1534 1535 1535 1535 1535 1535 1536 1536 1536 1536 1536 1535 1535 1535 1535 1535 1534 1533 1533 1532 1531 1530 1529 1528 1527
1528 1528 1529 1529 1530 1530 1531 1531 1532 1532 1532 1532 1533 1533 1533 1533 1533 1533 1532 1532 1533 1533 1533 1533 1534 1534 1534 1534 1534 1534 1534 1534 1534 1533 1533 1532 1531 1530 1530 1529 1528 1527 1525
1525 1526 1526 1527 1527 1528 1528 1529 1529 1529 1530 1530 1530 1530 1530 1530 1531 1530 1530 1530 1531 1531 1531 1531 1531 1532 1531 1532 1532 1532 1532 1531 1531 1532 1531 1531 1530 1529 1528 1527 1527 1526 1524
1522 1523 1524 1524 1524 1525 1525 1526 1526 1527 1527 1527 1527 1527 1528 1528 1528 1527 1527 1527 1528 1528 1529 1529 1529 1529 1529 1529 1529 1529 1529 1529 1529 1529 1529 1528 1528 1527 1527 1526 1525 1524 1523
1519 1520 1520 1521 1521 1522 1522 1523 1523 1524 1524 1524 1525 1525 1525 1524 1524 1524 1524 1524 1524 1525 1525 1525 1526 1526 1527 1527 1527 1527 1527 1527 1527 1527 1528 1527 1526 1525 1524 1524 1523 1522 1521
1516 1517 1517 1517 1518 1518 1519 1520 1520 1520 1521 1521 1521 1522 1522 1521 1521 1521 1521 1521 1521 1521 1522 1522 1523 1523 1524 1524 1524 1524 1524 1524 1524 1524 1525 1524 1524 1523 1522 1522 1521 1520 1519
1513 1513 1513 1514 1514 1515 1515 1516 1517 1517 1517 1518 1518 1518 1519 1519 1519 1518 1518 1518 1518 1518 1518 1519 1519 1520 1520 1520 1521 1521 1521 1521 1521 1521 1522 1522 1521 1521 1520 1519 1519 1518 1517